CW0003 Weather Reports


Display with metric or nautical units.
time (UTC)temp
F
wind
direction
speed
MPH
gust
MPH
rain 1hr
in
rain 24hr
in
rain mn
in
humidity
%
barometer
mb
20170328002622 39 325 0.0 0.0 0.00 0.49 0.49 95 1015.4
20170328001120 39 350 0.0 0.0 0.00 0.49 0.49 95 1015.2
20170327235618 39 355 0.0 0.0 0.00 0.49 0.49 95 1015.4
20170327234116 39 355 0.0 0.0 0.00 0.49 0.49 95 1015.3
20170327232611 40 30 0.0 0.0 0.00 0.49 0.49 96 1015.3
20170327231107 40 5 0.0 0.0 0.00 0.49 0.49 95 1015.1
20170327225654 40 15 0.0 0.0 0.00 0.49 0.49 95 1014.8
20170327224143 40 351 0.0 0.0 0.00 0.49 0.49 95 1015.1
20170327222638 40 18 0.0 0.0 0.00 0.49 0.49 95 1015.1
20170327221139 41 355 0.0 0.0 0.00 0.49 0.49 95 1015.0
20170327215638 41 336 0.0 0.0 0.00 0.49 0.49 95 1014.9
20170327214134 41 350 0.0 0.0 0.00 0.49 0.49 95 1014.9
20170327212632 41 348 0.0 0.0 0.00 0.49 0.49 95 1014.8
20170327211139 41 338 0.0 0.0 0.00 0.49 0.49 96 1015.0
20170327205630 42 326 0.0 0.0 0.00 0.49 0.49 96 1015.1
20170327204131 42 320 0.0 0.0 0.00 0.49 0.49 96 1015.0
20170327202625 42 19 0.0 0.0 0.00 0.49 0.49 96 1014.9
20170327201124 41 360 0.0 0.0 0.00 0.49 0.49 96 1015.2
20170327195614 42 355 0.0 0.0 0.00 0.49 0.49 96 1015.3
20170327194115 41 348 0.0 0.0 0.00 0.49 0.49 96 1015.5
20170327192556 41 355 0.0 0.0 0.00 0.49 0.49 96 1015.7
20170327191044 41 340 0.0 0.0 0.00 0.49 0.49 96 1015.9
20170327185554 41 344 0.0 0.0 0.01 0.49 0.49 97 1016.1
20170327184036 41 350 0.0 0.0 0.02 0.49 0.49 96 1016.3
20170327181031 41 333 0.0 0.0 0.03 0.49 0.49 97 1016.6
20170327175528 40 13 0.0 0.0 0.02 0.48 0.48 96 1016.7
20170327174031 40 355 0.0 0.0 0.01 0.47 0.47 96 1017.0
20170327172523 40 5 0.0 0.0 0.02 0.47 0.47 96 1017.2
20170327171017 39 11 0.0 0.0 0.04 0.46 0.46 96 1017.5
20170327165517 39 318 0.0 0.0 0.10 0.46 0.46 96 1017.7
20170327164012 39 341 0.0 0.0 0.16 0.46 0.46 96 1017.6
20170327162523 39 338 0.0 0.0 0.16 0.45 0.45 96 1017.8
20170327161004 39 311 0.0 0.0 0.19 0.42 0.42 96 1018.4
20170327155503 39 5 0.0 0.0 0.17 0.36 0.36 96 1018.8
20170327154008 39 347 0.0 0.0 0.15 0.30 0.30 96 1018.8
20170327152501 39 102 0.0 0.0 0.15 0.28 0.28 96 1018.7
20170327151004 39 104 0.0 0.0 0.10 0.23 0.23 96 1019.1
20170327145448 38 104 0.0 0.0 0.06 0.19 0.19 96 1019.4
20170327143942 38 105 0.0 0.0 0.02 0.14 0.14 96 1019.7
20170327142434 38 105 0.0 0.0 0.01 0.13 0.13 96 1019.9
20170327140927 38 105 0.0 0.0 0.01 0.13 0.13 96 1019.9
20170327135415 37 105 0.0 0.0 0.01 0.13 0.13 95 1019.8
20170327133909 37 105 0.0 0.0 0.02 0.12 0.12 95 1020.2
20170327132507 36 105 0.0 0.0 0.03 0.12 0.12 95 1020.5
20170327131000 36 105 0.0 0.0 0.04 0.12 0.12 95 1020.7
20170327125505 36 105 0.0 0.0 0.05 0.12 0.12 95 1020.9
20170327124008 36 105 0.0 0.0 0.03 0.10 0.10 95 1021.0
20170327122450 36 105 0.0 0.0 0.03 0.09 0.09 94 1021.4
20170327120950 35 105 0.0 0.0 0.04 0.08 0.08 94 1021.5
20170327115443 35 107 0.0 0.0 0.04 0.07 0.07 94 1021.6
20170327113947 35 108 0.0 0.0 0.05 0.07 0.07 94 1021.9
20170327112438 35 119 0.0 0.0 0.05 0.06 0.06 93 1022.0
20170327110934 35 119 0.0 0.0 0.03 0.04 0.04 93 1021.9
20170327105429 35 120 0.0 0.0 0.03 0.03 0.03 93 1022.6
20170327103932 35 121 0.0 0.0 0.02 0.02 0.02 92 1022.7
20170327102428 35 121 0.0 0.0 0.01 0.01 0.01 91 1023.2
20170327100924 35 121 0.0 0.0 0.01 0.01 0.01 90 1023.3
20170327095420 35 121 0.0 0.0 0.00 0.00 0.00 90 1023.6
20170327093914 35 121 0.0 0.0 0.00 0.00 0.00 89 1023.6
20170327092424 35 121 0.0 0.0 0.00 0.00 0.00 88 1023.6
20170327090916 35 123 0.0 0.0 0.00 0.00 0.00 88 1023.7
20170327085403 35 122 0.0 0.0 0.00 0.00 0.00 88 1024.3
20170327083911 34 99 0.0 0.0 0.00 0.00 0.00 87 1024.4
20170327082346 34 99 0.0 0.0 0.00 0.00 0.00 87 1024.6
20170327080839 34 99 0.0 0.0 0.00 0.00 0.00 87 1024.2
20170327075330 34 99 0.0 0.0 0.00 0.00 0.00 87 1024.6
20170327073817 34 99 0.0 0.0 0.00 0.00 0.00 87 1024.7
20170327072314 34 99 0.0 0.0 0.00 0.00 0.00 87 1025.1
20170327070808 34 99 0.0 0.0 0.00 0.00 0.00 87 1025.4
20170327065315 34 99 0.0 0.0 0.00 0.00 0.00 87 1025.6
20170327063805 34 99 0.0 0.0 0.00 0.00 0.00 87 1026.1
20170327062253 34 99 0.0 0.0 0.00 0.00 0.00 87 1026.2
20170327060750 34 99 0.0 0.0 0.00 0.00 0.00 87 1026.0
20170327055245 34 99 0.0 0.0 0.00 0.00 0.00 87 1026.4
20170327053746 34 99 0.0 0.0 0.00 0.00 0.00 87 1026.4
20170327052239 34 99 0.0 0.0 0.00 0.00 0.00 87 1026.6
20170327050741 34 99 0.0 0.0 0.00 0.00 0.00 87 1026.7
20170327045236 34 99 0.0 0.0 0.00 0.00 0.00 87 1027.0
20170327043732 34 99 0.0 0.0 0.00 0.00 0.00 87 1027.4
20170327042228 34 99 0.0 0.0 0.00 0.00 0.00 86 1027.6
20170327040741 35 99 0.0 0.0 0.00 0.00 0.00 86 1027.9
20170327035219 35 99 0.0 0.0 0.00 0.00 0.00 86 1028.1
20170327033715 35 99 0.0 0.0 0.00 0.00 0.00 87 1028.4
20170327032212 35 99 0.0 0.0 0.00 0.00 0.00 87 1028.7
20170327030709 35 99 0.0 0.0 0.00 0.00 0.00 87 1028.8
20170327025210 35 99 0.0 0.0 0.00 0.00 0.00 87 1028.7
20170327023700 35 99 0.0 0.0 0.00 0.00 0.00 87 1029.0
20170327022154 35 99 0.0 0.0 0.00 0.00 0.00 84 1028.7
20170327020743 34 99 0.0 0.0 0.00 0.00 0.00 86 1028.6
20170327015248 35 99 0.0 0.0 0.00 0.00 0.00 85 1029.0
20170327013738 35 99 0.0 0.0 0.00 0.00 0.00 86 1029.1
20170327012231 36 99 0.0 0.0 0.00 0.00 0.00 79 1029.1
20170327010738 36 99 0.0 0.0 0.00 0.00 0.00 77 1029.3
20170327005235 36 99 0.0 0.0 0.00 0.00 0.00 76 1029.7
20170327003725 36 98 0.0 0.0 0.00 0.00 0.00 77 1029.7